Powrót do katalogu

DB-BECON-2-VU

AktywnyNaukaSSO
NORAD 68468·PAYLOAD·🇬🇷 Greece

Wystrzelony Mar 30, 2026 z Vandenberg Space Force Base

Loading…

Następne Przeloty (najbliższe 24 godziny)

TLE

ŚwieżeSource: Space-Track

Epoka: Sep 14, 2026, 08:34 UTC

1 68468U 26067BE  26257.35719328  .00006896  00000-0  33294-3 0  9996
2 68468  97.4637 214.4878 0008669 101.7899 258.4308 15.18948488 25461

Śledź DB-BECON-2-VU w czasie rzeczywistym z AllMySat

Download on the App Store